Regional Weather Roundup
Issued by NWS Jackson, KY

Home | Current Version | Previous Version | Graphics & Text | Print | Product List | Glossary On
Versions: 1 2 3 4 5 6 7 8 9 10 11 12 13 14 15 16 17 18 19 20 21 22 23 24 25 26 27
000
ASUS43 KJKL 230510
RWRJKL

EAST KENTUCKY HOURLY WEATHER ROUNDUP
NATIONAL WEATHER SERVICE JACKSON KY
1200 AM EST THU NOV 23 2017

NOTE: "FAIR" INDICATES FEW OR NO CLOUDS BELOW 12,000 FEET WITH
NO SIGNIFICANT WEATHER AND/OR OBSTRUCTIONS TO VISIBILITY.

* THESE REPORTS ARE NOT UNDER NWS QUALITY CONTROL AND MAY NOT
  REPORT WEATHER SUCH AS PRECIPITATION AND FOG.

KYZ079-080-083-085-087-088-110-112-115-119-120-230600
...EASTERN KENTUCKY...

CITY           SKY/WX    TMP DP  RH WIND       PRES   REMARKS
JACKSON        CLOUDY    29  22  75 NE3       30.20F
LONDON         CLEAR     30  23  75 N5        30.21S WCI  25
SOMERSET*      CLOUDY    28  23  80 CALM      30.24F
MONTICELLO*    CLEAR     22  19  89 NE10      30.24F WCI  11
WILLIAMSBURG*  CLEAR     28  25  86 N5        30.20F WCI  23
MIDDLESBORO*   CLEAR     29  27  93 CALM      30.21S
HARLAN APT*    CLOUDY    30  28  93 CALM      30.18F
PIKE CO APT*     N/A     30  23  75 NE5       30.19F WCI  25
BIG SANDY APT* CLEAR     29  24  80 CALM      30.21F
MOREHEAD APT*  CLOUDY    28  21  74 CALM      30.24F
$$

KYZ035-036-041-042-044-050-067-078-099-230600
...CENTRAL KENTUCKY...

CITY           SKY/WX    TMP DP  RH WIND       PRES   REMARKS
MT STERLING*   CLOUDY    27  23  86 CALM      30.23F
DANVILLE*      CLOUDY    27  23  86 CALM      30.23F
LEXINGTON      CLOUDY    29  22  75 E3        30.23F
FRANKFORT      CLOUDY    26  20  77 CALM      30.22F
LOUISVILLE     CLOUDY    34  24  67 CALM      30.24F
LEBANON*         N/A     32  23  69 E6        30.23F WCI  26
GLASGOW*       CLOUDY    25  23  91 CALM      30.22F
BOWLING GREEN  CLOUDY    30  23  75 CALM      30.23F
$$

KYZ091>093-OHZ055-061-077-WVZ005-015-034-035-042-230600
...SOUTHERN OHIO/WEST VIRGINIA...

CITY           SKY/WX    TMP DP  RH WIND       PRES   REMARKS
COVINGTON      CLOUDY    30  24  78 E3        30.23S
COLUMBUS       CLEAR     28  20  71 CALM      30.24F
DAYTON         CLOUDY    26  22  84 SE7       30.23F WCI  18
WILMINGTON     CLOUDY    22  21  96 CALM      30.23F
HUNTINGTON     CLOUDY    28  22  78 CALM      30.22F
CHARLESTON     CLEAR     27  24  89 CALM      30.21F
PINEVILLE*       N/A     25  23  92 MISG      30.23S
BECKLEY        CLOUDY    24  19  81 CALM      30.13F
BLUEFIELD      CLOUDY    25  19  78 CALM      30.14F
LOGAN CO APT*    N/A     30  25  80 CALM      30.18S
$$

VAZ002-007-008-TNZ017-027-036-066-071-230600
...SOUTHWEST VIRGINIA/EAST TENNESSEE...

CITY           SKY/WX    TMP DP  RH WIND       PRES   REMARKS
WISE*          CLOUDY    30  27  86 CALM      30.15F
JONESVILLE*      N/A     27  27 100 CALM      30.21F
ABINGDON*      CLOUDY    33  26  75 E6        30.16F WCI  27
BRISTOL        CLEAR     30  25  81 CALM      30.18F
MORRISTOWN*    CLEAR     36  27  69 NE5       30.16F WCI  32
SEVIERVILLE*   PTCLDY    30  28  93 CALM      30.17F
KNOXVILLE      CLEAR     37  29  72 N7        30.16F WCI  32
LAFOLLETTE*    CLEAR     30  27  86 CALM      30.23S
OAK RIDGE      CLEAR     36  27  69 CALM      30.19F
CROSSVILLE     CLEAR     30  22  72 NE5       30.17F WCI  25
NASHVILLE      CLEAR     35  24  64 N3        30.25S
$$

...KEY TO REMARKS...
VSB - VISIBILITY IN MILES
WCI - WIND CHILL INDEX
HX  - HEAT INDEX

$$




USA.gov is the U.S. government's official web portal to all federal, state and local government web resources and services.